Wind_Speed
111 103 108 104 104 100 97 96 99 96 91 89 88 87 80 81 78 74 73 72 70 70 64 63 63 62 61 60 59 59 59 57 59 59 59 61 62 62 62 61 60 59 58 59
111 107 100 107 104 101 101 98 99 101 93 91 89 88 85 81 79 76 73 74 73 73 66 67 67 67 66 65 65 64 64 63 62 62 63 63 63 64 65 64 63 63 63 64
114 108 103 106 105 104 105 98 100 101 96 94 86 85 86 85 82 78 77 79 77 77 74 71 70 69 70 70 70 69 69 68 67 67 66 67 66 68 68 69 68 68 68 68
112 104 106 107 107 105 104 102 101 102 99 99 93 85 84 85 86 79 77 77 79 78 76 77 75 75 74 75 74 74 74 72 72 71 70 70 71 73 73 73 73 73 73 71
110 111 113 109 106 106 106 105 102 103 102 100 99 95 85 85 84 83 83 81 82 83 82 80 81 80 81 80 80 79 78 77 77 75 75 75 76 77 78 79 78 76 76 75
112 112 109 105 111 104 104 107 105 104 105 104 99 99 91 89 89 89 86 85 86 87 86 87 87 85 84 83 83 83 83 82 82 81 81 80 80 80 81 81 82 82 81 81
114 114 114 115 110 105 105 106 106 108 108 102 105 101 92 95 93 91 92 93 93 93 93 91 90 89 90 90 89 87 85 85 85 84 84 84 85 84 84 85 86 85 84 81
112 120 118 115 110 110 112 108 106 109 107 106 105 102 100 102 98 97 96 94 91 93 95 96 95 94 92 91 90 91 90 90 90 90 90 89 88 88 88 86 85 84 82 84
107 119 121 118 112 110 111 108 112 112 112 110 109 103 105 106 105 103 100 101 100 98 94 96 97 96 95 95 93 92 92 92 92 93 92 91 89 89 88 88 87 88 88 88
106 111 122 122 119 117 117 114 112 112 111 111 110 106 105 108 110 105 106 104 103 103 101 102 102 97 94 95 95 95 96 97 97 97 95 94 94 94 95 94 92 92 93 93
94 106 114 127 127 123 121 118 114 116 114 112 109 108 108 109 113 112 109 110 108 107 105 102 102 103 101 99 98 98 97 96 95 96 95 96 97 96 96 96 97 97 96 96
80 93 107 117 127 132 131 126 124 121 118 117 113 108 112 113 113 115 115 113 108 109 108 108 105 105 106 106 104 103 103 103 102 102 103 102 102 101 101 102 101 102 103 101
66 84 97 104 117 123 128 130 130 131 131 123 120 108 110 113 119 119 120 119 115 113 112 110 106 108 109 109 109 109 109 109 109 107 108 108 108 107 108 109 109 108 108 109
44 63 80 96 103 114 122 125 131 132 131 129 123 119 117 118 119 120 122 124 125 123 117 114 111 110 111 111 113 114 114 113 113 114 114 114 115 115 115 115 115 115 113 113
22 38 58 72 91 104 109 119 124 129 133 134 131 127 123 127 127 127 125 126 127 128 127 123 119 118 118 118 119 119 117 116 116 115 117 119 119 119 120 120 119 118 117 116
21 25 32 49 66 82 99 107 113 121 126 127 130 132 135 134 134 133 134 131 130 129 128 129 131 129 128 128 127 125 125 125 123 121 119 119 120 120 120 119 118 118 118 119
29 26 27 32 42 58 74 91 107 114 118 126 130 125 137 138 139 140 138 137 136 136 137 138 136 136 136 134 133 132 131 130 132 132 132 130 128 126 125 125 124 124 124 125
27 29 32 31 30 35 51 70 86 98 111 120 119 124 134 138 143 142 143 145 144 143 143 143 141 138 137 135 133 132 133 134 134 133 133 132 132 133 133 134 135 136 136 136
27 24 27 33 32 35 42 51 63 77 89 99 109 117 124 133 137 138 142 144 146 148 147 145 144 144 143 141 140 139 138 136 134 133 133 134 133 133 134 134 135 135 135 136
28 27 24 29 34 35 45 49 51 54 54 78 93 101 113 121 123 128 136 139 140 139 138 137 140 141 139 138 139 140 141 141 140 139 138 137 137 136 137 137 137 137 138 138
33 29 27 26 33 34 43 45 49 49 51 60 66 74 85 98 111 120 127 130 135 139 139 138 138 136 136 137 136 135 135 137 138 138 139 138 138 137 138 138 138 138 140 140
37 33 31 24 32 37 40 43 45 48 52 54 56 60 62 70 82 94 105 116 128 134 134 136 138 138 138 139 139 138 138 139 139 140 140 139 139 140 139 138 141 141 140 137
42 37 29 28 33 40 39 41 40 43 48 52 54 54 54 58 62 68 80 90 105 118 126 134 137 136 135 137 139 140 141 141 140 140 140 141 142 142 143 142 141 140 140 141
46 38 30 28 38 39 41 40 37 39 43 47 49 51 51 52 56 60 63 69 82 91 105 115 122 127 132 138 139 138 138 138 138 138 138 138 138 139 140 140 140 141 142 142
49 42 34 36 40 37 43 39 38 39 40 42 45 48 47 48 51 53 58 63 66 75 84 90 99 108 116 123 127 130 133 136 139 141 142 142 142 142 142 141 141 140 140 141
52 47 42 43 40 38 47 43 39 40 39 39 39 41 43 45 46 48 50 54 60 64 69 76 83 90 94 101 107 112 118 123 127 131 132 133 134 134 134 134 134 133 133 132
Wind_Direction
213 214 220 215 216 216 215 217 221 220 221 222 223 225 224 228 228 230 234 235 235 237 236 239 241 242 245 246 249 251 252 254 255 256 256 257 260 263 266 267 268 272 276 278
213 216 220 218 217 217 214 215 221 220 221 223 226 228 228 228 229 230 233 236 238 238 238 240 242 244 246 247 249 251 253 255 256 257 258 260 263 266 268 270 272 273 274 277
214 214 217 224 218 218 217 218 220 222 223 223 224 230 232 231 232 233 235 236 240 241 241 242 243 247 249 250 250 252 254 255 257 259 261 262 265 267 268 270 273 276 277 279
215 214 218 222 222 220 220 219 220 221 224 226 223 224 231 234 233 234 238 239 242 243 242 245 247 248 249 251 253 254 256 258 259 260 263 264 266 268 270 271 273 275 278 280
214 215 219 221 225 223 222 221 221 222 224 227 226 226 227 229 230 232 235 239 243 245 244 245 246 247 250 251 252 254 255 258 260 262 264 265 267 269 271 274 275 276 278 280
212 218 219 221 221 226 224 224 223 223 224 227 228 228 228 229 231 232 233 237 241 243 245 248 249 250 251 251 253 254 256 257 259 261 263 265 267 269 270 272 275 277 278 279
211 216 217 221 224 223 228 225 225 224 226 227 229 229 227 235 234 234 234 235 236 239 244 245 247 248 250 254 257 259 260 262 264 265 265 267 268 269 270 270 271 273 276 279
215 215 222 226 225 226 226 228 227 225 226 228 228 230 230 235 237 238 236 236 239 240 240 241 244 248 250 251 252 253 256 258 260 262 263 265 266 268 269 270 271 273 275 274
220 216 220 223 226 226 227 230 229 227 227 228 229 230 233 234 237 239 242 242 242 243 244 245 246 246 247 248 249 251 255 256 259 261 262 264 264 265 267 268 269 270 273 275
223 221 220 222 225 225 227 230 233 232 230 229 229 231 233 237 239 242 243 245 246 248 248 248 249 249 250 251 253 253 253 255 257 257 259 260 262 264 265 267 270 273 274 275
225 225 225 223 225 227 229 232 233 235 234 232 230 230 234 237 238 241 243 244 246 247 249 251 252 252 254 255 256 257 258 259 260 262 263 265 266 267 267 270 272 272 274 276
227 227 227 227 228 230 230 231 232 233 236 236 235 232 233 237 240 242 244 243 246 247 248 250 252 253 255 256 258 260 261 261 262 262 262 264 266 268 269 270 272 273 274 275
231 228 228 230 230 231 233 232 234 235 236 237 238 238 240 239 239 241 242 244 245 246 247 248 252 254 255 257 259 260 262 263 264 265 266 267 268 269 270 271 272 274 276 277
236 234 233 231 232 233 234 234 234 235 238 239 240 239 240 241 242 241 242 244 246 247 247 247 249 253 255 257 258 260 261 263 264 266 267 268 268 269 271 272 274 275 276 276
253 240 236 235 235 234 234 236 236 237 238 240 241 242 241 242 243 243 243 243 244 245 247 248 249 251 254 256 258 259 260 262 264 266 266 267 269 270 271 272 274 274 275 276
277 261 249 242 236 237 238 237 238 238 238 239 240 241 241 241 243 243 243 243 244 247 250 251 251 253 253 255 257 258 259 260 261 262 264 265 266 268 269 270 271 271 272 273
288 282 263 248 245 241 237 238 239 239 239 239 239 238 241 241 243 243 245 247 248 248 249 250 252 254 255 256 258 258 260 261 261 262 263 264 265 266 267 269 269 270 271 272
280 281 283 276 259 246 244 243 240 239 241 241 241 239 240 242 242 244 246 247 249 250 252 253 253 254 256 258 259 260 260 261 262 263 264 265 266 267 268 269 270 271 272 274
284 276 279 280 275 262 257 249 246 245 243 245 243 241 242 243 243 244 246 248 250 251 252 253 255 256 256 257 259 260 260 261 262 264 265 266 266 268 269 270 271 272 273 275
275 283 284 281 275 273 264 262 261 258 254 252 247 245 245 246 246 245 247 248 248 248 250 252 254 255 256 257 259 260 261 262 263 264 265 266 268 269 270 271 272 273 274 275
277 279 276 276 276 272 270 270 266 262 254 257 257 253 249 248 248 247 248 248 249 250 250 251 251 253 254 255 256 258 260 262 263 264 266 267 268 269 270 271 272 274 274 275
288 286 281 276 278 276 273 273 268 267 265 258 257 258 257 255 251 249 249 249 250 251 252 252 253 254 254 255 256 257 258 259 261 262 263 264 266 267 268 269 270 273 274 274
293 287 286 287 291 278 275 274 276 271 268 266 265 263 261 259 257 257 251 248 249 249 250 252 254 254 256 256 257 258 259 260 261 262 263 264 265 267 268 269 270 271 272 272
288 283 288 300 289 286 285 280 280 272 269 269 269 267 266 266 262 259 259 256 249 249 251 252 252 253 254 256 257 258 259 261 262 263 265 266 267 268 269 271 272 272 273 274
281 282 290 297 291 295 291 286 288 282 277 275 271 270 271 271 268 264 263 261 258 255 253 252 252 254 254 255 256 258 260 261 263 264 265 267 268 269 271 272 273 274 276 277
279 282 288 289 295 296 291 291 292 291 286 283 279 277 276 276 274 269 264 264 261 257 257 257 257 257 257 258 258 259 260 261 262 263 265 267 269 270 272 273 275 276 278 279
Height
10563 10578 10591 10608 10622 10638 10649 10662 10672 10682 10692 10702 10710 10712 10723 10733 10741 10748 10753 10757 10760 10764 10770 10774 10777 10779 10782 10784 10786 10788 10789 10791 10792 10792 10793 10794 10792 10793 10792 10792 10792 10793 10793 10790
10555 10569 10575 10593 10611 10623 10636 10646 10657 10668 10681 10692 10700 10704 10711 10724 10730 10736 10741 10746 10747 10753 10759 10762 10765 10767 10770 10771 10773 10774 10775 10778 10780 10780 10781 10781 10781 10779 10778 10779 10780 10781 10780 10779
10538 10554 10569 10576 10595 10609 10621 10634 10643 10655 10666 10679 10687 10693 10703 10710 10715 10722 10729 10731 10736 10739 10746 10751 10752 10755 10756 10757 10759 10761 10763 10765 10766 10767 10768 10768 10768 10767 10766 10767 10767 10767 10767 10766
10528 10544 10554 10560 10580 10593 10605 10617 10626 10639 10650 10663 10672 10684 10689 10699 10703 10709 10713 10720 10722 10726 10730 10735 10737 10738 10741 10743 10745 10747 10749 10750 10752 10753 10754 10754 10754 10753 10752 10752 10752 10753 10753 10753
10518 10530 10538 10551 10559 10576 10590 10601 10613 10624 10636 10649 10661 10670 10679 10684 10690 10693 10697 10702 10705 10709 10713 10717 10721 10723 10724 10727 10729 10731 10733 10735 10738 10739 10740 10740 10740 10739 10737 10736 10737 10737 10737 10737
10506 10513 10526 10537 10550 10557 10576 10588 10598 10608 10618 10633 10644 10656 10666 10670 10673 10676 10681 10687 10688 10689 10693 10698 10703 10706 10708 10710 10713 10716 10718 10720 10721 10723 10724 10724 10725 10724 10722 10721 10720 10721 10721 10720
10495 10503 10512 10522 10534 10549 10558 10572 10580 10590 10600 10621 10625 10639 10661 10650 10658 10661 10663 10665 10668 10671 10674 10678 10683 10688 10692 10694 10697 10700 10702 10704 10706 10707 10707 10708 10708 10707 10707 10706 10704 10703 10703 10703
10482 10494 10500 10510 10523 10533 10538 10553 10568 10574 10586 10598 10608 10625 10635 10633 10639 10641 10643 10646 10649 10653 10657 10661 10665 10670 10674 10676 10678 10681 10684 10686 10687 10687 10688 10688 10689 10690 10689 10688 10688 10687 10686 10684
10468 10480 10487 10495 10508 10517 10530 10542 10539 10552 10564 10576 10592 10610 10614 10617 10615 10618 10622 10626 10632 10638 10641 10645 10648 10652 10655 10658 10660 10663 10665 10667 10668 10669 10670 10671 10671 10671 10671 10670 10669 10668 10667 10665
10453 10464 10473 10482 10490 10502 10512 10518 10524 10535 10549 10562 10579 10590 10599 10599 10599 10604 10607 10609 10613 10618 10621 10625 10630 10633 10637 10640 10643 10644 10646 10648 10649 10649 10650 10651 10651 10651 10651 10650 10650 10649 10648 10646
10439 10450 10460 10468 10475 10483 10494 10504 10509 10513 10525 10539 10556 10573 10578 10576 10578 10580 10583 10588 10592 10597 10600 10604 10608 10613 10617 10619 10622 10624 10625 10627 10629 10631 10631 10632 10632 10631 10632 10632 10631 10629 10628 10627
10424 10434 10442 10449 10459 10468 10477 10485 10489 10493 10505 10515 10533 10558 10556 10556 10560 10561 10561 10566 10572 10578 10581 10584 10588 10592 10595 10597 10599 10601 10604 10606 10608 10608 10610 10610 10611 10611 10611 10610 10609 10608 10607 10606
10407 10413 10422 10431 10440 10447 10456 10465 10472 10476 10480 10500 10509 10544 10536 10533 10531 10534 10539 10545 10550 10554 10558 10560 10565 10569 10572 10576 10578 10579 10581 10582 10583 10584 10586 10587 10588 10588 10588 10587 10586 10585 10584 10583
10393 10398 10405 10411 10419 10426 10434 10441 10451 10456 10466 10474 10497 10506 10510 10506 10508 10514 10520 10524 10526 10529 10533 10537 10543 10548 10550 10552 10554 10556 10557 10559 10561 10562 10562 10562 10561 10562 10563 10564 10563 10563 10561 10559
10384 10385 10388 10394 10400 10404 10412 10419 10425 10435 10446 10455 10470 10485 10488 10481 10480 10484 10489 10493 10496 10500 10505 10513 10520 10522 10524 10527 10530 10532 10534 10536 10538 10538 10537 10537 10538 10539 10540 10539 10538 10538 10536 10533
10377 10375 10375 10377 10382 10388 10396 10399 10403 10412 10417 10429 10435 10454 10443 10448 10454 10458 10460 10464 10470 10479 10485 10488 10490 10493 10497 10501 10503 10505 10507 10510 10510 10510 10511 10512 10513 10513 10513 10514 10512 10510 10508 10506
10365 10365 10365 10365 10366 10369 10373 10368 10373 10378 10381 10387 10397 10422 10407 10419 10421 10426 10434 10440 10447 10450 10451 10456 10463 10464 10466 10471 10475 10478 10481 10482 10480 10482 10483 10483 10484 10485 10486 10486 10485 10483 10480 10478
10353 10354 10351 10351 10356 10357 10349 10346 10346 10350 10357 10359 10374 10390 10384 10384 10393 10404 10403 10408 10417 10422 10425 10427 10432 10438 10444 10448 10451 10451 10449 10450 10452 10454 10455 10455 10456 10458 10459 10458 10456 10454 10452 10449
10342 10342 10341 10340 10341 10338 10332 10325 10327 10331 10339 10343 10352 10359 10352 10356 10368 10377 10379 10386 10391 10392 10399 10402 10404 10410 10416 10420 10418 10417 10418 10420 10425 10425 10425 10426 10428 10429 10429 10427 10425 10423 10421 10418
10333 10331 10329 10327 10326 10322 10311 10315 10317 10320 10336 10313 10312 10324 10330 10337 10344 10352 10354 10357 10357 10360 10365 10371 10374 10380 10384 10386 10387 10389 10391 10391 10393 10394 10395 10397 10398 10399 10398 10396 10393 10392 10390 10387
10320 10320 10317 10314 10312 10308 10301 10300 10300 10303 10304 10296 10296 10301 10306 10310 10309 10320 10324 10327 10327 10329 10335 10339 10343 10349 10350 10353 10355 10357 10360 10361 10362 10364 10364 10364 10366 10366 10364 10362 10361 10360 10356 10354
10305 10304 10303 10302 10297 10292 10289 10285 10286 10284 10280 10280 10279 10277 10281 10283 10282 10285 10292 10299 10298 10297 10299 10306 10312 10316 10320 10322 10323 10326 10327 10327 10330 10332 10332 10334 10333 10331 10331 10331 10325 10326 10323 10322
10291 10288 10290 10287 10282 10276 10275 10270 10269 10266 10260 10258 10258 10259 10261 10260 10258 10258 10260 10264 10265 10265 10270 10273 10278 10284 10287 10290 10291 10292 10293 10296 10299 10299 10301 10301 10300 10299 10298 10296 10294 10292 10291 10288
10274 10272 10276 10276 10266 10263 10259 10256 10254 10250 10244 10241 10240 10238 10239 10238 10236 10234 10233 10236 10239 10239 10237 10242 10245 10249 10253 10254 10258 10262 10263 10264 10264 10266 10267 10266 10266 10264 10263 10263 10261 10260 10257 10255
10255 10258 10262 10260 10253 10251 10243 10242 10238 10233 10229 10225 10223 10221 10219 10219 10216 10215 10213 10209 10210 10212 10213 10216 10218 10219 10222 10224 10226 10229 10232 10234 10235 10235 10234 10233 10233 10233 10231 10230 10228 10227 10223 10219
10239 10245 10248 10245 10241 10239 10228 10227 10224 10218 10215 10211 10209 10206 10202 10200 10197 10196 10193 10190 10188 10187 10189 10192 10193 10193 10196 10197 10198 10202 10204 10205 10205 10204 10203 10203 10202 10201 10200 10199 10197 10195 10190 10186